EW6866 Weather Reports


Display with metric or nautical units.
time (UTC)temp
F
wind
direction
speed
MPH
gust
MPH
rain 1hr
in
rain 24hr
in
rain mn
in
humidity
%
barometer
mb
20260507101503 66 179 0.0 3.0 0.00 0.06 0.06 96 1009.2
20260507100025 66 146 0.0 3.0 0.00 0.06 0.06 96 1009.2
20260507094525 66 132 0.0 1.0 0.00 0.06 0.06 96 1009.0
20260507093004 66 187 0.0 2.0 0.00 0.06 0.06 96 1009.0
20260507091503 66 173 0.0 1.0 0.00 0.06 0.06 96 1009.0
20260507090004 66 142 0.0 1.0 0.00 0.06 0.06 95 1008.9
20260507084504 66 162 0.0 2.0 0.01 0.06 0.06 95 1009.1
20260507083004 66 199 0.0 3.0 0.01 0.06 0.06 95 1009.4
20260507081504 66 229 0.0 3.0 0.02 0.06 0.06 95 1009.7
20260507080004 66 127 0.0 2.0 0.03 0.06 0.06 94 1009.6
20260507074505 66 0 0.0 0.0 0.05 0.05 0.05 93 1010.3
20260507073005 66 135 0.0 1.0 0.05 0.05 0.05 92 1009.9
20260507071505 67 231 0.0 3.0 0.04 0.04 0.04 90 1009.5
20260507070010 68 241 1.0 6.0 0.03 0.03 0.03 87 1009.3
20260507064506 70 186 0.0 6.0 0.00 0.00 0.00 83 1010.0
20260507063006 70 158 0.0 3.0 0.00 0.00 0.00 81 1010.1
20260507061505 70 231 0.0 1.0 0.00 0.00 0.00 81 1010.7
20260507060005 70 164 0.0 1.0 0.00 0.00 0.00 80 1010.6
20260507054505 70 188 0.0 1.0 0.00 0.00 0.00 80 1010.6
20260507053005 70 210 0.0 1.0 0.00 0.00 0.00 79 1010.7
20260507051526 71 182 0.0 3.0 0.00 0.00 0.00 79 1010.7
20260507050006 71 170 0.0 2.0 0.00 0.00 0.00 79 1010.7
20260507044526 71 175 0.0 1.0 0.00 0.00 0.00 78 1010.7
20260507043005 71 193 0.0 4.0 0.00 0.00 0.00 77 1010.6
20260507041526 71 231 1.0 4.0 0.00 0.00 0.00 77 1010.8
20260507040006 71 177 0.0 5.0 0.00 0.00 0.00 76 1010.6
20260507034505 71 198 0.0 3.0 0.00 0.00 0.00 75 1010.8
20260507033026 71 208 0.0 2.0 0.00 0.00 0.00 74 1010.7
20260507031505 72 188 0.0 5.0 0.00 0.00 0.00 73 1010.9
20260507030005 72 227 0.0 4.0 0.00 0.00 0.00 72 1010.7
20260507024527 72 231 0.0 5.0 0.00 0.00 0.00 71 1010.7
20260507023025 72 197 0.0 3.0 0.00 0.00 0.00 70 1010.9
20260507021505 72 198 0.0 3.0 0.00 0.00 0.00 69 1010.9
20260507020005 73 206 1.0 3.0 0.00 0.00 0.00 68 1010.6
20260507014505 73 225 0.0 6.0 0.00 0.00 0.00 67 1010.9
20260507013005 73 185 0.0 3.0 0.00 0.00 0.00 66 1010.7
20260507011505 74 249 1.0 5.0 0.00 0.00 0.00 64 1010.9
20260507010005 75 184 1.0 6.0 0.00 0.00 0.00 63 1010.7
20260507004504 75 188 1.0 6.0 0.00 0.00 0.00 63 1010.7
20260507003004 76 245 1.0 5.0 0.00 0.00 0.00 64 1010.5
20260507001504 76 226 2.0 8.0 0.00 0.00 0.00 67 1010.2
20260507000005 76 257 1.0 8.0 0.00 0.00 0.00 68 1010.0
20260506234526 77 254 1.0 7.0 0.00 0.00 0.00 69 1010.1
20260506233005 77 223 1.0 8.0 0.00 0.00 0.00 70 1010.0
20260506231506 77 246 1.0 5.0 0.00 0.00 0.00 71 1009.8
20260506230004 78 214 1.0 8.0 0.00 0.00 0.00 71 1009.6
20260506224504 78 273 0.0 5.0 0.00 0.00 0.00 71 1009.7
20260506223005 78 220 1.0 5.0 0.00 0.00 0.00 71 1009.6
20260506221504 79 249 1.0 5.0 0.00 0.00 0.00 69 1009.6
20260506220004 79 239 1.0 3.0 0.00 0.00 0.00 68 1009.7
20260506214504 80 230 0.0 5.0 0.00 0.00 0.00 65 1009.7
20260506213005 80 156 0.0 3.0 0.00 0.00 0.00 62 1009.8
20260506211504 81 153 1.0 3.0 0.00 0.00 0.00 60 1009.8
20260506210005 81 169 2.0 7.0 0.00 0.00 0.00 61 1010.2
20260506204504 81 200 1.0 6.0 0.00 0.00 0.00 62 1010.4
20260506203025 81 225 1.0 8.0 0.00 0.00 0.00 61 1010.7
20260506201525 82 156 1.0 7.0 0.00 0.00 0.00 63 1010.9
20260506200025 82 209 1.0 6.0 0.00 0.00 0.00 60 1011.0
20260506194504 81 230 2.0 8.0 0.00 0.00 0.00 63 1011.3
20260506193005 81 148 1.0 5.0 0.00 0.00 0.00 63 1011.5
20260506191504 81 250 1.0 7.0 0.00 0.00 0.00 63 1011.6
20260506190025 81 176 1.0 6.0 0.00 0.00 0.00 62 1011.8
20260506184525 80 187 2.0 5.0 0.00 0.00 0.00 64 1011.9
20260506183005 81 169 1.0 6.0 0.00 0.00 0.00 61 1012.1
20260506181505 81 169 2.0 5.0 0.00 0.00 0.00 62 1012.4
20260506180026 81 184 2.0 7.0 0.00 0.00 0.00 61 1012.7
20260506174525 80 189 2.0 9.0 0.00 0.00 0.00 63 1012.6
20260506173005 80 192 1.0 5.0 0.00 0.00 0.00 65 1012.6
20260506171504 79 254 2.0 6.0 0.00 0.00 0.00 67 1012.9
20260506164504 78 225 2.0 10.0 0.00 0.00 0.00 69 1013.2
20260506163004 77 269 2.0 5.0 0.00 0.00 0.00 71 1013.4
20260506161525 76 229 3.0 12.0 0.00 0.00 0.00 71 1013.8
20260506160004 76 194 2.0 9.0 0.00 0.00 0.00 72 1014.2
20260506154504 76 176 2.0 6.0 0.00 0.00 0.00 74 1014.5
20260506153004 73 236 1.0 7.0 0.00 0.00 0.00 77 1014.4
20260506151504 73 181 2.0 5.0 0.00 0.00 0.00 76 1014.5
20260506150005 74 167 2.0 6.0 0.00 0.00 0.00 74 1014.7
20260506144504 74 163 2.0 11.0 0.00 0.00 0.00 73 1014.7
20260506143004 74 227 2.0 8.0 0.00 0.00 0.00 73 1014.3
20260506141504 74 192 3.0 10.0 0.00 0.00 0.00 72 1014.2
20260506140004 74 210 2.0 10.0 0.00 0.00 0.00 74 1014.2
20260506134504 73 201 2.0 11.0 0.00 0.00 0.00 76 1014.1
20260506133004 72 244 1.0 7.0 0.00 0.00 0.00 78 1014.0
20260506131505 71 222 1.0 5.0 0.00 0.00 0.00 81 1013.9
20260506130024 70 235 2.0 5.0 0.00 0.00 0.00 82 1014.1
20260506124504 69 242 2.0 5.0 0.00 0.00 0.00 83 1014.5
20260506123004 68 234 1.0 8.0 0.00 0.00 0.00 84 1014.5
20260506121504 67 242 1.0 5.0 0.00 0.00 0.00 86 1014.4
20260506120003 66 231 0.0 4.0 0.00 0.00 0.00 88 1014.7
20260506114503 65 252 0.0 3.0 0.00 0.00 0.00 89 1014.9
20260506113004 64 281 1.0 5.0 0.00 0.00 0.00 90 1014.7
20260506111504 63 206 0.0 5.0 0.00 0.00 0.00 91 1014.5
20260506110003 62 206 0.0 2.0 0.00 0.00 0.00 92 1014.3
20260506104525 62 276 0.0 3.0 0.00 0.00 0.00 92 1014.5
20260506103004 62 210 0.0 1.0 0.00 0.00 0.00 92 1014.5